Theta_e
343 343 343 340 340 341 340 341 343 344 342 344 345 344 344 344 344 343 343 344 342 340 341 340 340 343 344 344 343 345 345 344 347 346 343 343 343 343 343 344 341 338 338
342 342 343 342 342 342 342 343 344 345 344 345 344 343 344 345 344 344 344 344 342 342 340 342 342 345 344 343 344 346 348 346 346 350 348 349 345 342 339 339 340 342 342
341 341 340 341 341 344 344 344 344 345 343 345 345 344 345 345 345 344 345 344 344 345 344 346 343 345 346 344 342 344 344 345 346 349 349 347 341 339 341 342 342 341 347
343 343 341 338 339 340 342 342 345 345 345 344 344 344 345 346 347 347 344 346 344 344 343 342 342 344 344 343 343 344 346 346 347 347 348 348 344 344 340 343 347 341 340
343 344 345 342 337 339 343 343 345 346 345 346 345 345 345 345 344 345 345 347 346 344 344 343 344 343 344 345 345 344 345 345 344 345 347 349 349 348 347 343 346 342 341
343 343 345 346 342 338 340 343 344 344 343 344 345 344 345 344 344 343 344 345 345 344 345 344 344 345 346 343 344 343 346 344 344 343 343 341 342 342 344 343 343 342 345
344 345 345 346 346 341 343 343 345 344 343 343 343 343 344 346 345 345 344 344 344 344 345 344 343 343 345 345 345 344 343 343 343 344 342 342 342 342 342 341 341 340 341
346 346 346 346 347 342 344 346 344 343 345 345 342 342 340 341 341 344 343 344 344 343 343 341 339 341 340 342 344 342 342 342 341 340 340 341 342 341 340 338 339 337 335
345 346 345 345 345 343 343 345 344 343 342 344 343 342 342 343 341 342 342 341 340 339 340 339 337 335 338 338 342 340 341 342 341 341 341 340 339 337 338 339 338 337 338
344 341 340 344 344 343 342 341 341 342 342 342 342 341 341 342 343 341 335 335 335 336 339 337 339 341 340 342 341 341 341 341 341 339 336 335 336 337 338 337 334 333 332
334 338 337 337 337 342 341 341 341 340 340 341 341 340 340 339 339 339 337 335 339 338 339 339 337 339 340 340 339 339 337 334 333 333 334 334 334 334 333 333 332 328 324
339 339 338 340 339 338 339 341 341 340 339 340 340 340 340 339 339 339 339 338 339 339 339 338 338 338 337 336 334 330 327 327 331 332 332 332 331 331 331 327 322 318 314
335 339 338 337 337 337 335 336 338 338 337 337 338 338 338 337 336 337 337 337 337 337 337 337 337 334 335 333 330 328 325 328 328 328 330 329 329 325 321 319 314 308 305
338 335 338 336 337 338 337 337 337 336 336 336 336 335 335 333 332 331 333 334 333 334 334 334 333 332 332 329 327 324 324 323 323 326 325 323 322 320 316 311 305 304 303
337 338 337 337 337 336 337 336 335 335 335 335 335 335 333 332 330 330 326 323 323 323 326 327 331 330 329 327 325 323 323 323 323 322 320 319 317 312 305 303 302 302 302
335 335 334 334 334 333 333 332 332 331 331 331 331 330 330 322 318 318 318 315 312 314 315 316 317 318 319 320 320 320 319 318 317 317 316 312 306 303 302 302 301 301 301
331 330 327 321 321 320 318 317 318 320 322 325 328 328 325 324 325 324 323 320 314 308 310 313 314 317 317 317 316 315 314 312 309 306 304 303 302 301 301 301 301 301 301
314 315 315 315 315 314 312 311 311 310 310 310 313 317 322 323 320 315 313 314 318 317 313 312 313 311 310 311 310 309 308 306 304 302 301 301 301 300 300 300 300 300 300
312 313 313 313 313 313 313 312 312 311 310 310 309 308 307 306 305 305 305 307 309 310 310 311 311 311 310 309 308 306 304 302 301 300 300 300 300 300 300 300 300 300 300
315 311 311 310 310 311 312 312 312 311 310 310 310 309 309 309 306 303 303 303 304 306 309 312 311 310 309 308 306 304 302 301 300 300 299 299 300 299 299 299 299 298 298
312 311 313 314 313 311 310 310 310 310 309 309 309 309 309 308 307 306 305 306 308 310 311 311 310 308 307 306 303 301 300 299 299 299 299 299 299 299 299 298 298 298 298
311 311 311 310 309 310 311 311 309 309 309 309 308 307 309 308 308 307 307 306 308 309 308 307 307 306 304 303 301 299 298 298 298 298 298 298 298 299 298 298 297 297 297
318 317 314 311 310 309 308 309 307 306 307 306 306 307 308 309 308 308 307 306 306 306 305 304 303 302 301 300 299 298 298 297 297 298 298 298 299 299 298 298 297 297 298
319 319 319 318 316 312 308 307 307 308 308 307 306 306 306 308 309 308 307 306 306 305 304 303 301 300 299 298 298 297 297 297 297 297 298 298 299 298 298 297 297 298 298
319 320 320 318 317 316 314 312 307 308 308 308 306 306 305 305 307 308 308 306 306 305 303 303 301 299 298 297 297 296 297 296 296 297 298 298 298 298 298 297 298 298 298
313 313 313 314 315 315 315 315 314 315 310 308 308 309 307 306 305 306 307 305 305 305 304 303 302 300 299 298 296 296 296 296 297 298 298 298 298 298 297 298 298 298 298
Wind_Speed
27 25 23 21 21 20 21 19 17 16 17 18 17 15 14 15 17 17 15 14 16 15 14 13 13 13 12 13 13 12 12 12 11 11 13 12 10 9 10 11 13 13 13
25 24 23 21 21 21 22 20 19 17 17 19 17 16 15 17 17 17 16 17 17 16 15 15 14 14 14 14 14 15 13 13 12 12 11 7 8 10 9 10 10 10 9
22 22 22 22 22 20 20 20 19 18 17 19 19 17 18 17 19 18 17 15 15 16 16 16 16 15 13 13 13 14 13 13 13 11 10 10 12 9 9 9 10 8 6
25 23 21 21 22 22 20 20 19 17 17 19 20 18 18 17 18 19 18 16 16 16 16 15 15 17 15 13 11 11 12 12 13 12 10 11 11 10 10 8 6 7 5
28 27 25 21 21 22 22 22 20 19 18 17 18 20 20 19 19 21 21 19 18 18 16 15 15 15 16 15 14 13 14 13 13 12 12 11 9 7 8 10 5 4 4
29 28 27 25 22 22 24 23 22 20 20 19 19 17 15 17 19 19 20 22 19 19 17 16 16 16 16 18 17 16 15 14 15 16 14 13 12 12 12 10 6 2 0
30 31 30 29 26 24 24 24 22 21 20 18 16 16 17 17 17 17 17 19 17 16 15 14 14 15 14 15 16 15 17 17 17 14 16 15 14 13 12 8 5 4 2
28 29 27 29 29 26 24 24 21 19 19 19 16 16 18 19 18 17 15 15 16 15 14 14 14 17 17 14 15 14 16 16 15 15 15 15 14 13 8 6 5 6 7
19 20 22 27 31 26 26 20 19 20 21 18 17 15 15 18 20 16 14 11 12 13 16 16 16 16 18 16 13 15 15 19 18 16 14 12 9 7 5 4 4 2 5
13 10 16 21 24 26 22 25 19 20 21 22 24 21 17 17 22 23 17 16 19 21 19 18 19 21 20 19 16 17 16 15 13 9 6 5 5 5 5 5 5 3 6
3 5 10 16 11 19 21 20 19 15 12 12 12 13 12 12 11 16 17 16 18 19 17 17 18 19 18 15 12 12 11 9 9 7 6 6 5 5 6 7 9 12 12
5 5 4 8 8 4 1 5 11 12 8 10 11 9 9 10 11 12 14 16 15 13 14 14 14 15 14 14 13 11 7 6 7 7 7 6 8 9 12 14 13 12 11
7 6 4 6 6 7 5 2 1 1 1 3 3 4 5 5 5 6 8 9 9 10 12 13 15 14 13 14 14 11 8 6 6 8 9 10 12 16 15 13 13 11 10
4 2 6 4 4 11 7 6 5 3 5 5 5 5 4 4 4 3 3 3 3 5 8 10 8 7 5 7 7 5 5 6 8 11 12 11 11 11 11 11 9 8 8
6 6 5 6 5 7 7 4 4 6 6 6 7 7 7 7 6 6 5 4 1 0 2 3 7 8 7 9 9 9 9 10 10 11 11 11 11 10 8 7 6 5 6
10 10 9 7 6 6 6 6 5 5 5 3 4 6 8 7 7 6 5 2 2 2 2 4 4 2 2 3 4 6 8 10 10 11 11 10 8 7 5 5 5 6 6
8 9 9 9 8 8 8 6 5 4 3 3 4 5 7 5 5 5 4 5 2 4 4 4 4 4 4 5 8 8 10 11 9 7 6 5 4 4 4 4 5 6 8
9 9 8 9 7 8 9 9 9 7 7 5 3 3 4 8 9 8 6 6 6 10 8 7 6 6 5 8 8 9 9 8 6 5 4 4 3 4 4 5 6 7 7
8 7 6 5 4 3 4 4 4 4 5 4 3 3 1 2 5 8 10 12 11 12 10 10 10 10 9 8 7 7 8 7 6 5 4 3 4 4 5 6 7 7 7
3 2 2 1 1 1 1 1 2 2 1 1 1 1 2 4 4 4 4 7 9 10 9 10 12 10 9 10 10 9 11 11 10 10 9 7 5 6 7 8 7 5 4
4 3 3 3 3 4 5 5 6 6 6 6 6 6 5 3 3 3 3 4 6 7 8 11 11 11 11 11 11 11 12 12 11 9 8 8 8 8 9 9 7 5 2
4 5 6 7 8 8 8 8 8 9 10 10 10 10 9 6 5 4 3 4 6 8 9 10 11 12 12 12 12 11 11 10 9 9 7 7 8 8 7 7 5 3 2
7 7 8 8 9 10 11 10 9 10 10 10 9 9 10 11 9 8 6 6 7 8 9 9 10 10 10 10 11 11 11 10 9 8 8 6 5 6 4 4 2 1 1
9 10 12 12 12 12 13 13 13 12 11 11 11 10 10 13 15 13 11 10 10 10 9 9 9 9 9 9 10 10 10 9 8 7 5 4 4 4 3 3 3 2 3
8 10 11 11 13 14 15 16 16 15 15 13 13 14 13 14 16 17 16 14 13 11 8 8 8 8 9 9 10 10 10 8 7 6 5 5 4 2 3 4 4 5 6
6 9 11 13 15 16 15 15 16 20 19 19 16 14 15 15 16 17 19 17 15 12 9 8 8 8 8 9 10 10 9 8 7 7 5 4 3 3 3 4 5 3 2
Wind_Direction
222 226 231 231 226 228 227 233 241 242 232 240 247 241 243 244 243 244 248 256 257 255 259 267 266 267 270 270 275 278 284 292 290 297 307 310 314 318 309 313 322 330 329
221 224 228 231 232 233 226 234 231 238 245 239 240 245 249 252 247 249 255 263 258 255 260 266 263 263 265 266 268 272 275 283 292 299 301 318 328 322 322 330 338 340 337
218 220 222 226 230 236 237 229 236 243 235 234 236 243 252 253 248 249 252 259 251 250 258 268 265 261 265 264 269 269 273 282 292 297 302 316 326 326 333 345 347 352 26
219 221 221 222 225 230 234 231 234 236 237 237 232 239 242 243 246 250 258 262 251 253 259 261 261 252 256 265 261 266 268 268 283 288 291 303 313 316 325 341 4 358 8
222 223 226 225 226 228 228 228 231 235 239 236 241 244 245 248 248 249 256 258 254 256 256 257 262 259 258 265 276 268 273 274 276 277 283 291 294 299 309 329 350 359 14
230 233 233 234 230 225 228 229 230 237 244 248 250 252 251 253 256 261 260 260 256 258 258 260 265 264 262 261 261 273 273 277 289 280 281 291 295 298 312 320 329 0 273
237 238 238 239 236 231 228 227 232 241 244 245 252 256 259 262 266 270 266 254 249 255 257 263 269 271 269 269 263 261 275 274 275 278 284 283 288 296 302 306 306 330 347
241 244 246 240 234 229 227 227 232 237 238 238 247 255 255 254 262 265 259 251 249 244 249 264 273 269 274 281 261 262 273 273 275 277 279 282 288 290 284 275 279 297 306
242 238 241 242 226 220 217 217 232 238 241 238 239 266 265 257 254 250 250 251 258 265 268 273 269 276 275 269 267 266 271 275 278 278 279 284 286 277 266 253 261 284 292
226 260 285 233 220 233 225 219 228 245 251 254 254 260 262 263 249 236 236 264 276 279 270 268 264 261 263 259 258 264 263 268 272 271 271 269 266 267 267 263 272 292 301
243 237 244 247 241 232 223 216 220 224 232 241 240 248 263 267 266 254 252 260 271 264 263 264 260 257 254 251 241 237 244 252 251 246 239 242 249 264 276 289 299 305 307
134 145 203 195 173 148 250 228 204 214 218 238 242 254 264 265 257 252 251 253 255 255 247 247 241 241 235 225 215 204 199 217 228 233 244 262 283 292 297 302 305 306 305
159 175 187 185 193 179 161 77 30 115 248 260 244 244 246 261 270 264 261 254 243 248 247 247 243 227 230 232 219 196 172 199 233 254 264 279 286 299 300 306 310 310 304
153 140 160 184 186 185 170 180 165 204 210 216 223 224 216 221 239 237 245 263 265 253 249 254 243 213 204 205 159 154 215 230 256 264 272 277 287 289 296 298 298 304 303
142 138 154 151 166 157 148 161 192 203 218 231 237 244 243 233 221 204 193 175 167 297 293 260 214 216 209 209 222 221 241 242 244 258 271 283 286 287 287 289 294 296 292
112 112 110 109 112 106 103 114 119 123 112 128 232 239 235 205 176 168 179 197 215 225 207 195 175 179 250 243 231 235 238 252 261 267 270 275 277 277 275 284 302 314 314
110 107 102 98 97 100 103 99 101 120 122 118 123 168 199 207 188 202 239 245 221 230 204 201 233 240 227 242 254 255 265 267 259 257 255 247 249 265 288 297 316 324 328
103 104 106 105 109 103 96 92 88 80 76 84 120 154 191 222 235 230 235 257 237 255 234 224 228 237 232 259 268 282 279 271 271 266 254 254 255 276 298 317 321 319 324
97 109 106 101 95 97 103 106 93 77 59 71 87 82 51 273 263 259 253 247 237 231 228 222 218 221 226 234 251 275 271 263 251 234 242 256 278 293 300 300 304 307 316
52 41 23 4 4 36 246 249 255 271 293 307 249 266 324 328 316 294 259 238 232 228 221 217 216 218 233 244 252 240 237 229 222 228 225 224 237 276 289 290 292 295 293
359 339 316 308 293 274 262 257 257 259 269 276 268 270 264 285 279 273 246 223 214 210 213 216 225 240 250 257 252 238 225 221 221 231 251 260 263 263 266 270 277 278 265
298 302 308 309 305 298 289 282 277 272 272 274 273 269 257 253 243 239 245 234 218 212 220 236 250 254 249 243 236 229 225 225 234 246 256 269 279 278 273 275 270 276 288
269 279 278 277 277 275 274 273 275 273 264 265 265 259 249 242 242 241 245 244 238 241 249 254 252 247 240 231 223 220 223 227 230 238 246 255 268 272 268 254 232 194 199
269 278 278 279 281 277 273 267 264 265 263 260 262 257 256 248 239 239 241 241 237 240 256 259 250 234 223 224 227 230 231 232 236 241 248 253 256 245 207 189 175 161 130
270 272 271 265 267 272 271 270 266 265 261 260 261 260 260 257 251 245 238 237 233 236 249 252 246 235 225 220 226 230 227 228 230 228 215 211 208 185 155 156 141 106 97
300 296 292 288 285 282 270 268 270 267 261 253 250 254 258 252 253 249 239 235 229 226 235 240 242 232 229 228 228 225 226 225 220 216 209 184 155 142 143 145 129 123 120